KD2PO-13 Weather Reports


time (UTC)temp
F
wind
direction
speed
knots
gust
knots
rain 1hr
in
rain 24hr
in
rain mn
in
humidity
%
barometer
mb
20260506050937 45 0 0.0 0.9 0.00 0.22 0.22 97
20260506050437 45 0 0.0 2.6 0.00 0.22 0.22 97
20260506044937 45 0 0.0 0.9 0.00 0.22 0.22 97
20260506044437 45 0 0.0 0.9 0.00 0.22 0.22 97
20260506043937 45 0 0.0 0.9 0.00 0.22 0.22 97
20260506043437 45 0 0.0 0.9 0.00 0.22 0.22 97
20260506042437 45 0 0.0 0.9 0.00 0.22 0.22 96
20260506041938 45 0 0.0 2.6 0.00 0.22 0.22 96
20260506041438 45 0 0.0 2.6 0.00 0.22 0.22 96
20260506040437 45 0 0.0 0.9 0.00 0.22 0.22 96
20260506035937 45 0 0.0 3.5 0.00 0.22 0.22 96
20260506035436 45 341 0.9 3.5 0.00 0.22 0.22 96
20260506034937 45 0 0.0 4.3 0.00 0.22 0.22 96
20260506034438 46 337 0.9 5.2 0.00 0.22 0.22 96
20260506033937 46 333 1.7 5.2 0.00 0.22 0.22 95
20260506033437 46 0 0.0 2.6 0.00 0.22 0.22 95
20260506032936 46 0 0.0 0.0 0.00 0.22 0.22 95
20260506032437 46 0 0.0 0.9 0.00 0.22 0.22 95
20260506031937 46 0 0.0 2.6 0.00 0.22 0.22 95
20260506031437 46 0 0.0 2.6 0.00 0.22 0.22 95
20260506030937 46 0 0.0 0.0 0.00 0.22 0.22 94
20260506030437 46 0 0.0 0.9 0.00 0.22 0.22 94
20260506025936 46 0 0.0 0.9 0.00 0.22 0.22 94
20260506025437 46 0 0.0 2.6 0.00 0.22 0.22 93
20260506024937 47 0 0.0 2.6 0.00 0.22 0.22 93
20260506024437 47 0 0.0 2.6 0.00 0.22 0.22 93
20260506023937 47 338 1.7 2.6 0.00 0.22 0.22 92
20260506023436 47 0 0.0 2.6 0.00 0.22 0.22 92
20260506022937 47 0 0.0 2.6 0.00 0.22 0.22 92
20260506022437 47 0 0.0 0.9 0.00 0.22 0.22 91
20260506021937 47 0 0.0 0.9 0.00 0.22 0.22 91
20260506021437 47 0 0.0 3.5 0.00 0.22 0.22 91
20260506020936 47 0 0.0 4.3 0.00 0.22 0.22 91
20260506020436 47 333 1.7 4.3 0.00 0.22 0.22 90
20260506015937 48 340 1.7 7.0 0.00 0.22 0.22 90
20260506015437 48 339 3.5 7.0 0.00 0.22 0.22 90
20260506014937 48 338 3.5 6.1 0.00 0.22 0.22 89
20260506014437 48 326 0.9 5.2 0.00 0.22 0.22 89
20260506013936 48 333 2.6 6.1 0.00 0.22 0.22 89
20260506013437 48 338 1.7 6.1 0.00 0.22 0.22 89
20260506012937 49 338 1.7 7.0 0.00 0.22 0.22 89
20260506012437 49 334 1.7 7.0 0.00 0.22 0.22 89
20260506011937 49 339 3.5 7.8 0.00 0.22 0.22 89
20260506011436 49 344 3.5 9.6 0.00 0.22 0.22 88
20260506010936 49 333 4.3 9.6 0.00 0.22 0.22 88
20260506010437 49 336 4.3 9.6 0.00 0.22 0.22 89
20260506005937 49 345 3.5 8.7 0.00 0.22 0.22 89
20260506005437 50 340 3.5 9.6 0.00 0.22 0.22 88
20260506004937 50 353 4.3 9.6 0.00 0.22 0.22 88
20260506004437 50 352 5.2 8.7 0.00 0.22 0.22 88
20260506003936 50 351 4.3 8.7 0.00 0.22 0.22 87
20260506003436 51 8 0.9 7.8 0.00 0.22 0.22 86
20260506002937 51 346 4.3 13.9 0.00 0.22 0.22 85
20260506002437 51 2 5.2 13.9 0.01 0.22 0.22 84
20260506001937 52 27 6.1 16.5 0.01 0.22 0.22 84
20260506001437 52 7 6.1 16.5 0.02 0.22 0.22 83
20260506000936 53 345 9.6 14.8 0.02 0.22 0.22 83
20260506000438 55 339 7.0 13.9 0.02 0.22 0.22 85
20260505235924 56 347 4.3 11.3 0.02 0.22 0.22 85
20260505235424 58 10 6.1 11.3 0.03 0.22 0.22 88
20260505234924 58 345 5.2 10.4 0.06 0.22 0.22 89
20260505234424 58 334 1.7 5.2 0.07 0.22 0.22 91
20260505233924 58 350 2.6 5.2 0.13 0.22 0.22 92
20260505233424 58 0 0.0 9.6 0.13 0.22 0.22 92
20260505232923 59 25 2.6 9.6 0.13 0.22 0.22 92
20260505232423 59 24 2.6 6.1 0.12 0.21 0.21 92
20260505231923 60 19 0.9 4.3 0.13 0.21 0.21 92
20260505231424 60 21 0.9 4.3 0.12 0.20 0.20 93
20260505230925 60 9 0.9 3.5 0.12 0.20 0.20 93
20260505230424 60 0 0.0 6.1 0.12 0.20 0.20 93
20260505225924 60 323 3.5 6.1 0.12 0.20 0.20 92
20260505225424 61 0 0.0 3.5 0.11 0.19 0.19 90
20260505224924 61 0 0.0 6.1 0.08 0.16 0.16 89
20260505224424 62 0 0.0 6.1 0.07 0.15 0.15 87
20260505223924 63 142 2.6 4.3 0.01 0.09 0.09 85
20260505223423 63 0 0.0 2.6 0.01 0.09 0.09 83
20260505222923 64 0 0.0 1.7 0.01 0.09 0.09 81
20260505222423 65 0 0.0 0.9 0.01 0.09 0.09 77
20260505221923 65 0 0.0 0.9 0.00 0.08 0.08 73
20260505221423 66 0 0.0 0.9 0.00 0.08 0.08 72
20260505220924 66 0 0.0 0.9 0.00 0.08 0.08 71
20260505220424 66 0 0.0 0.9 0.00 0.08 0.08 71
20260505215924 66 0 0.0 1.7 0.00 0.08 0.08 71
20260505215424 66 0 0.0 2.6 0.00 0.08 0.08 71
20260505214924 66 0 0.0 2.6 0.00 0.08 0.08 72
20260505214424 66 341 1.7 5.2 0.00 0.08 0.08 71
20260505213924 67 333 3.5 5.2 0.00 0.08 0.08 69
20260505213424 67 336 1.7 5.2 0.00 0.08 0.08 68
20260505212924 67 322 0.9 7.0 0.00 0.08 0.08 68
20260505212424 67 337 2.6 8.7 0.00 0.08 0.08 69
20260505211924 68 340 3.5 8.7 0.00 0.08 0.08 68
20260505211423 69 335 4.3 8.7 0.00 0.08 0.08 65
20260505210923 70 282 4.3 9.6 0.00 0.08 0.08 65
20260505210423 70 268 0.9 9.6 0.00 0.08 0.08 66
20260505205923 70 235 1.7 10.4 0.00 0.08 0.08 67
20260505205423 69 229 4.3 11.3 0.00 0.08 0.08 65
20260505204923 69 236 3.5 13.9 0.00 0.08 0.08 65
20260505203924 69 268 5.2 10.4 0.00 0.08 0.08 66
20260505202924 69 221 3.5 8.7 0.00 0.08 0.08 68
20260505202424 69 164 3.5 8.7 0.00 0.08 0.08 70
20260505201924 68 208 4.3 10.4 0.01 0.08 0.08 69
20260505201424 67 167 4.3 12.2 0.01 0.08 0.08 71
20260505200924 67 185 4.3 12.2 0.01 0.08 0.08 73
20260505200424 67 182 5.2 13.0 0.01 0.08 0.08 75
20260505195423 65 173 7.0 14.8 0.01 0.08 0.08 76
20260505194923 65 167 7.8 13.9 0.01 0.08 0.08 77
20260505194019 64 184 6.1 13.0 0.01 0.08 0.08 79
20260505193519 64 168 6.1 14.8 0.01 0.08 0.08 79
20260505193019 64 187 7.0 14.8 0.01 0.08 0.08 78
20260505192519 64 177 3.5 13.9 0.01 0.08 0.08 79
20260505192019 64 202 6.1 13.9 0.00 0.07 0.07 79
20260505191519 65 225 0.9 4.3 0.05 0.07 0.07 80
20260505191019 65 0 0.0 4.3 0.07 0.07 0.07 79
20260505190518 65 0 0.0 5.2 0.07 0.07 0.07 80
20260505190018 65 285 2.6 6.1 0.07 0.07 0.07 80
20260505185519 65 275 2.6 7.0 0.07 0.07 0.07 81
20260505184518 64 285 3.5 7.0 0.07 0.07 0.07 86
20260505184018 63 286 1.7 5.2 0.07 0.07 0.07 90
20260505183519 61 0 0.0 4.3 0.07 0.07 0.07 89
20260505183019 61 339 0.9 4.3 0.07 0.07 0.07 88
20260505182019 62 315 2.6 17.4 0.07 0.07 0.07 79
20260505181519 65 306 6.1 17.4 0.02 0.02 0.02 73
20260505181019 68 300 6.1 15.6 0.00 0.00 0.00 61
20260505180519 70 283 7.0 16.5 0.00 0.00 0.00 53
20260505180019 71 220 7.0 16.5 0.00 0.00 0.00 51
20260505175519 71 215 7.8 15.6 0.00 0.00 0.00 49
20260505174518 73 212 7.8 20.0 0.00 0.00 0.00 47
20260505174018 73 218 8.7 20.0 0.00 0.00 0.00 48
20260505173518 73 217 6.1 11.3 0.00 0.00 0.00 49
20260505173018 72 213 7.8 11.3 0.00 0.00 0.00 49
20260505172518 71 264 3.5 11.3 0.00 0.00 0.00 52
20260505172018 71 235 2.6 11.3 0.00 0.00 0.00 51
20260505171519 71 252 4.3 13.9 0.00 0.00 0.00 51
20260505171019 71 241 7.0 13.9 0.00 0.00 0.00 50
20260505170519 71 269 5.2 13.0 0.00 0.00 0.00 51
20260505170019 71 210 7.0 22.6 0.00 0.00 0.00 51
20260505165519 71 266 7.8 22.6 0.00 0.00 0.00 50
20260505164519 71 273 7.0 16.5 0.00 0.00 0.00 50
20260505164019 71 261 9.6 16.5 0.00 0.00 0.00 49
20260505163518 71 261 8.7 18.2 0.00 0.00 0.00 50
20260505162519 71 242 7.0 15.6 0.00 0.00 0.00 51
20260505162018 71 252 3.5 17.4 0.00 0.00 0.00 50
20260505161518 71 253 8.7 17.4 0.00 0.00 0.00 50
20260505161018 71 241 9.6 18.2 0.00 0.00 0.00 50
20260505160518 71 237 7.8 18.2 0.00 0.00 0.00 51
20260505153019 72 267 6.1 20.9 0.00 0.00 0.00 49
20260505152519 72 243 7.0 20.9 0.00 0.00 0.00 50
20260505152019 72 241 7.8 16.5 0.00 0.00 0.00 51
20260505151519 72 230 7.8 19.1 0.00 0.00 0.00 51
20260505151019 72 280 7.8 19.1 0.00 0.00 0.00 51
20260505150519 72 217 5.2 18.2 0.00 0.00 0.00 52
20260505140519 69 192 7.8 15.6 0.00 0.00 0.00 55
20260505124518 66 173 8.7 18.2 0.00 0.00 0.00 60
20260505123904 66 187 7.0 21.7 0.00 0.00 0.00 60
20260505123404 66 214 11.3 21.7 0.00 0.00 0.00 59
20260505122403 65 194 6.1 16.5 0.00 0.00 0.00 61
20260505121903 65 192 9.6 16.5 0.00 0.00 0.00 62
20260505121403 65 173 7.8 20.0 0.00 0.00 0.00 63
20260505120904 64 185 7.0 20.0 0.00 0.00 0.00 64
20260505114403 62 183 7.0 11.3 0.00 0.00 0.00 67
20260505113903 62 177 6.1 13.0 0.00 0.00 0.00 68
20260505113404 62 194 6.1 13.9 0.00 0.00 0.00 68
20260505112404 61 177 6.1 13.9 0.00 0.00 0.00 70
20260505111904 60 179 5.2 13.9 0.00 0.00 0.00 72
20260505111403 60 156 7.0 14.8 0.00 0.00 0.00 72
20260505110903 60 167 7.8 14.8 0.00 0.00 0.00 73
20260505110403 60 164 7.8 12.2 0.00 0.00 0.00 74
20260505101903 0 0.0 0.0 0.00 0.00 0.00
20260505101404 0 0.0 0.0 0.00 0.00 0.00
20260505100904 0 0.0 0.0 0.00 0.00 0.00
20260505100403 0 0.0 0.0 0.00 0.00 0.00
20260505095403 0 0.0 0.0 0.00 0.00 0.00
20260505094903 0 0.0 0.0 0.00 0.00 0.00
20260505094403 0 0.0 0.0 0.00 0.00 0.00
20260505093904 0 0.0 0.0 0.00 0.00 0.00
20260505093404 0 0.0 0.0 0.00 0.00 0.00
20260505092904 0 0.0 0.0 0.00 0.00 0.00
20260505092403 0 0.0 0.0 0.00 0.00 0.00
20260505091903 0 0.0 0.0 0.00 0.00 0.00
20260505091403 0 0.0 0.0 0.00 0.00 0.00
20260505090903 0 0.0 0.0 0.00 0.00 0.00
20260505090404 0 0.0 0.0 0.00 0.00 0.00
20260505085404 0 0.0 0.0 0.00 0.00 0.00
20260505084903 0 0.0 0.0 0.00 0.00 0.00
20260505084403 0 0.0 0.0 0.00 0.00 0.00
20260505083903 0 0.0 0.0 0.00 0.00 0.00
20260505083403 0 0.0 0.0 0.00 0.00 0.00
20260505082904 0 0.0 0.0 0.00 0.00 0.00
20260505082404 0 0.0 0.0 0.00 0.00 0.00
20260505081903 0 0.0 0.0 0.00 0.00 0.00
20260505081403 0 0.0 0.0 0.00 0.00 0.00
20260505080903 0 0.0 0.0 0.00 0.00 0.00
20260505080403 0 0.0 0.0 0.00 0.00 0.00
20260505075903 0 0.0 0.0 0.00 0.00 0.00
20260505075403 0 0.0 0.0 0.00 0.00 0.00
20260505074903 0 0.0 0.0 0.00 0.00 0.00
20260505074403 0 0.0 0.0 0.00 0.00 0.00
20260505073903 0 0.0 0.0 0.00 0.00 0.00
20260505073403 0 0.0 0.0 0.00 0.00 0.00
20260505072903 0 0.0 0.0 0.00 0.00 0.00
20260505072403 0 0.0 0.0 0.00 0.00 0.00
20260505071904 0 0.0 0.0 0.00 0.00 0.00
20260505071403 0 0.0 0.0 0.00 0.00 0.00
20260505070903 0 0.0 0.0 0.00 0.00 0.00
20260505070403 0 0.0 0.0 0.00 0.00 0.00
20260505065903 0 0.0 0.0 0.00 0.00 0.00
20260505065403 0 0.0 0.0 0.00 0.00 0.00
20260505064903 0 0.0 0.0 0.00 0.00 0.00
20260505064403 0 0.0 2.6 0.00 0.00 0.00
20260505063904 61 0.0 2.6 0.00 0.00 0.00
20260505063404 61 197 2.6 5.2 0.00 0.00 0.00 61
20260505062903 61 197 2.6 9.6 0.00 0.00 0.00 61
20260505062403 61 196 4.3 11.3 0.00 0.00 0.00 61
20260505061903 61 200 4.3 11.3 0.00 0.00 0.00 60
20260505061403 62 198 4.3 12.2 0.00 0.00 0.00 60
20260505060902 61 210 1.7 12.2 0.00 0.00 0.00 60
20260505060404 61 190 4.3 9.6 0.00 0.00 0.00 60
20260505055903 61 198 4.3 9.6 0.00 0.00 0.00 60